Regional Weather Roundup
Issued by NWS

Home | Current Version | Previous Version | Text Only | Print | Product List | Glossary Off
Versions: 1 2 3 4 5 6 7 8 9 10 11 12 13 14 15 16 17 18 19 20 21 22 23 24 25 26 27 28 29 30 31 32 33 34 35 36 37 38 39 40 41 42 43 44 45 46 47 48 49 50

817
ASUS43 KMPX 282110
RWRMN
WEATHER ROUNDUP FOR MINNESOTA
NATIONAL WEATHER SERVICE TWIN CITIES/CHANHASSEN MN
400 PM CDT SAT MAY 28 2016


NOTE: "FAIR" INDICATES FEW OR NO CLOUDS BELOW 12,000 FEET WITH NO
SIGNIFICANT WEATHER AND/OR OBSTRUCTIONS TO VISIBILITY. N/A MEANS
CURRENT SKY AND/OR WEATHER CONDITIONS ARE NOT AVAILABLE.

MNZ060>063-068>070-282200-
   Twin Cities Metro

CITY           SKY/WX    TMP DP  RH WIND       PRES   REMARKS
TWIN CITIES    LGT RAIN  64  61  90 N8        29.77S FOG
ST PAUL        LGT RAIN  64  61  90 N9        29.77R FOG
CRYSTAL        LGT RAIN  63  59  87 N5        29.76S FOG
BLAINE         LGT RAIN  64  63  94 W5        29.78R
EDEN PRAIRIE   LGT RAIN  66  61  84 N9        29.74F
SOUTH ST PAUL  LGT RAIN  64  62  92 N6        29.76S
LAKE ELMO      CLOUDY    63  63 100 NW6       29.78R
$$
MNZ001>005-007-008-013>017-022>024-027-028-282200-
   Northwest Minnesota

CITY           SKY/WX    TMP DP  RH WIND       PRES   REMARKS
BEMIDJI        CLOUDY    61  56  82 NE8       29.80S
HALLOCK        CLOUDY    72  57  60 E6        29.82S
ROSEAU         RAIN      61  55  82 E12       29.84R
WARROAD        DRIZZLE   61  55  82 NE12      29.85S
THIEF RVR FALL CLOUDY    61  57  88 N12       29.84S
CROOKSTON      DRIZZLE   63  57  82 NE9       29.83F
FOSSTON        DRIZZLE   59  57  94 NE6       29.82S
DETROIT LAKES  DRIZZLE   59  57  94 CALM      29.82R
MOORHEAD       CLOUDY    64  57  77 NE14      29.82R
PARK RAPIDS    CLOUDY    60  57  89 CALM      29.80R
MAHNOMEN       CLOUDY    59  57  92 N9        29.81S
$$
MNZ006-009>011-018-025>026-282200-
   North Central Minnesota

CITY           SKY/WX    TMP DP  RH WIND       PRES   REMARKS
BAUDETTE       LGT RAIN  60  58  92 NE12      29.81S FOG
FLAG ISLAND    CLOUDY    61  55  82 NE17      29.84F
INTL FALLS     LGT RAIN  59  58  96 E7        29.81S FOG
WASKISH        CLOUDY    61  57  88 NE5       29.81S
BIG FORK       DRIZZLE   61  59  94 CALM      29.79R
LONGVILLE      CLOUDY    61  57  88 CALM      29.79S
GRAND RAPIDS   CLOUDY    61  57  88 SE3       29.80S FOG
CRANE LAKE     CLOUDY    59  57  94 CALM      29.80F
ORR            CLOUDY    59  55  88 CALM      29.77S FOG
COOK           CLOUDY    61  59  94 CALM      29.79S
WALKER         CLOUDY    59  57  94 CALM      29.80R
$$
MNZ012-019>021-037-282200-
   Northeast Minnesota

CITY           SKY/WX    TMP DP  RH WIND       PRES   REMARKS
DULUTH         CLOUDY    63  56  78 VRB3      29.78S
ELY            DRIZZLE   61  59  94 CALM      29.79S
HIBBING        CLOUDY    59  57  93 CALM      29.78S
EVELETH        CLOUDY    59  55  88 CALM      29.80R
DULUTH HARBOR  CLOUDY    52  48  87 NE3       29.80S
TWO HARBORS    LGT RAIN  63  57  82 E3        29.78R
SILVER BAY     FOG       59  57  94 NE3       29.78R VSB 1/2
GRAND MARAIS     N/A     50  47  89 NE6       29.78R
G MARAIS ARPRT CLOUDY    63  57  82 NE6       29.81R
$$
MNZ029>031-032-039>041-046>048-054>057-064-282200-
   West Central Minnesota

CITY           SKY/WX    TMP DP  RH WIND       PRES   REMARKS
FERGUS FALLS   CLOUDY    64  55  72 NE5       29.77S
WHEATON        CLOUDY    70  57  64 N8        29.82R
MORRIS         RAIN      64  61  88 CALM      29.79S
ALEXANDRIA     LGT RAIN  62  57  83 NW5       29.81F
ELBOW LAKE     RAIN      63  56  79 CALM      29.81S
WADENA         CLOUDY    61  54  77 CALM      29.80S
GLENWOOD       DRIZZLE   63  59  88 NW7       29.80S
APPLETON       DRIZZLE   66  57  72 N8        29.78F
BENSON         CLOUDY    63  57  82 N2        29.79
ORTONVILLE     LGT RAIN  64  57  77 CALM      29.80R
MADISON        LGT RAIN  64  61  88 N5        29.80R
WILLMAR        CLOUDY    63  61  94 N7        29.80S
$$
MNZ033>034-036-042>043-049>051-058-059-282200-
   Central Minnesota

CITY           SKY/WX    TMP DP  RH WIND       PRES   REMARKS
ST CLOUD       PTSUNNY   64  59  83 NW5       29.78S
SAUK CENTRE    DRIZZLE   61  58  91 N5        29.79S
PAYNESVILLE    CLOUDY    64  60  89 N3        29.79S
AITKIN         MIX PCPN  63  55  77 SW3       29.78S
PINE RIVER     LGT RAIN  61  55  82 SW3       29.84R
BRAINERD       LGT RAIN  60  58  92 NW3       29.80F FOG
STAPLES        LGT RAIN  59  55  88 CALM      29.81S
LONG PRAIRIE   RAIN      59  57  94 NW5       29.80F
LITTLE FALLS   CLOUDY    59  57  94 N3        29.79F
LITCHFIELD     LGT RAIN  64  63  94 N3        29.79R
BUFFALO        LGT RAIN  62  58  84 N5        29.79S
MAPLE LAKE     CLOUDY    65  60  85 NW5       29.80R
HUTCHINSON     DRIZZLE   65  62  90 N3        29.78F
$$
MNZ037-044-045-052-053-282200-
   East Central Minnesota

CITY           SKY/WX    TMP DP  RH WIND       PRES   REMARKS
PRINCETON        N/A     63  59  88 CALM      29.79R
MORA           PTSUNNY   63  57  82 NW3       29.79F
CAMBRIDGE      RAIN      66  55  68 CALM      29.76S
RUSH CITY      LGT RAIN  64  58  81 NW5       29.77F
MOOSE LAKE     CLOUDY    63  55  77 W3        29.77S
HINCKLEY       RAIN      63  59  88 CALM      29.78S
CLOQUET        CLOUDY    63  57  82 W3        29.78F
MCGREGOR       CLOUDY    61  55  82 W6        29.80R
$$
MNZ071>073-080-081-089-090-097-098-282200-
   Southwest Minnesota

CITY           SKY/WX    TMP DP  RH WIND       PRES   REMARKS
MONTEVIDEO     DRIZZLE   63  61  94 NE6       29.80F
GRANITE FALLS  CLOUDY    68  61  77 NW7       29.80F
CANBY          CLOUDY    65  62  90 N5        29.82R
MARSHALL       CLOUDY    63  57  82 N8        29.80R
REDWOOD FALLS  LGT RAIN  63  59  87 N6        29.78S FOG
OLIVIA         CLOUDY    68  63  83 NW8       29.77S
PIPESTONE      PTSUNNY   66  57  72 E9        29.79R
WINDOM         PTSUNNY   66  61  82 N7        29.78R
WORTHINGTON    PTSUNNY   69  62  78 N12       29.77S
JACKSON        MOSUNNY   66  57  72 N8        29.77S
TRACY          CLOUDY    64  61  88 N10       29.79R
SLAYTON        PTSUNNY   64  60  88 N8        29.80R
$$
MNZ065>067-074>077-082>085-091>093-282200-
   South Central Minnesota

CITY           SKY/WX    TMP DP  RH WIND       PRES   REMARKS
MANKATO        PTSUNNY   66  63  88 N6        29.75S
NEW ULM        CLOUDY    64  61  88 NW6       29.77R
ST JAMES       PTSUNNY   63  57  82 N6        29.77S
FAIRMONT       CLOUDY    64  61  88 NE6       29.75F
GLENCOE        LGT RAIN  64  63  98 N6        29.75F
FARIBAULT      PTSUNNY   66  63  88 SW3       29.76S
OWATONNA       CLOUDY    66  61  82 CALM      29.77S
WASECA         LGT RAIN  64  59  82 SW6       29.77S
ALBERT LEA     RAIN      63  61  94 CALM      29.78R
$$
MNZ078>079-086>088-094>096-282200-
   Southeast Minnesota

CITY           SKY/WX    TMP DP  RH WIND       PRES   REMARKS
ROCHESTER      PTSUNNY   72  64  76 S14       29.77S
RED WING       LGT RAIN  73  66  78 SW8       29.73R
STANTON        LGT RAIN  66  62  85 NW5       29.76R
DODGE CENTER   MOSUNNY   73  61  64 W18       29.78R
WINONA         PTSUNNY   77  63  61 CALM      29.75S
AUSTIN         PTSUNNY   66  57  72 W9G16     29.79R
PRESTON        PTSUNNY   72  61  68 SW8       29.78R
$$
ABBREVIATIONS USED IN REMARKS
   TC - TEMPERATURES IN CELSIUS
  WCI - WIND CHILL INDEX
   HX - HEAT INDEX
  VSB - VISIBILITY
$$




USA.gov is the U.S. government's official web portal to all federal, state and local government web resources and services.